Iridium
NORAD ID: 24906
Int'l Code: 1997-043D
Perigee: 783.1 km
Apogee: 786.5 km
Inclination: 86.4 °
Period: 100.4 minutes
Semi major axis: 7155 km
Launch date: August 21, 1997
Source: United States (US)
Two Line Element Set (TLE):
1 24906U 97043D 13166.46225420 .00000060 00000-0 14185-4 0 4170
2 24906 086.3977 146.7823 0002403 103.1495 053.6423 14.34219932828173
Source: AFSPC
NASA's NSSDC Master Catalog entry for IRIDIUM 23